Presure
122 130 196 193 191 153 198 152 193 170 135 192 185 204 212 205 220 273 244 240 216 271 268 273 275 282 259 296 281 272 251 236 252 227 268 299 304 314
131 168 189 131 134 152 130 135 187 151 190 147 197 207 207 237 231 237 257 250 257 258 274 265 282 273 251 278 280 249 243 235 267 279 247 298 283 303
113 132 198 122 124 159 177 162 202 194 167 156 211 203 211 229 220 231 259 260 275 274 305 280 272 255 247 269 261 242 240 242 275 274 247 287 282 283
207 193 191 211 206 204 205 178 211 209 203 231 245 223 217 255 266 261 264 262 275 267 298 259 254 254 244 278 266 254 253 271 277 260 244 252 230 241
188 181 196 197 211 213 215 220 266 257 238 250 262 216 267 209 251 261 259 253 257 272 300 289 287 277 287 272 276 273 265 244 237 227 229 230 231 230
202 202 197 200 250 193 256 240 218 240 279 230 234 246 246 247 245 261 251 274 270 261 257 250 243 247 259 248 238 231 228 224 224 218 218 223 227 230
209 208 240 204 211 246 265 253 242 234 233 248 258 249 240 248 252 248 255 263 261 259 249 239 239 231 224 226 226 220 223 223 216 214 218 233 235 235
217 219 245 197 270 274 273 279 252 251 274 201 264 250 241 241 242 243 252 254 249 251 254 246 232 228 219 220 227 227 225 217 210 206 226 225 228 246
245 261 167 196 297 251 264 278 254 281 257 242 255 250 238 237 238 258 250 250 251 246 257 251 243 248 237 226 237 235 220 215 213 224 226 219 224 226
240 243 238 276 271 261 258 268 215 254 260 227 244 239 238 233 243 255 243 247 245 253 248 246 238 239 245 243 227 215 216 219 220 222 225 234 231 239
241 240 254 291 275 273 244 258 241 246 256 244 237 233 238 230 251 244 240 243 243 243 240 247 230 240 223 215 217 225 221 220 226 235 251 262 267 287
289 290 232 270 218 250 252 239 254 249 244 235 235 248 239 252 244 247 236 253 240 237 230 237 253 227 214 219 221 218 223 229 241 254 267 318 313 326
276 258 242 241 259 276 266 253 254 234 233 234 233 233 251 241 245 239 231 252 239 226 247 247 232 217 221 222 220 227 232 245 257 310 311 304 327 363
275 280 266 270 256 254 245 229 237 236 231 228 246 247 241 241 237 229 240 239 259 239 241 234 217 222 222 224 227 239 250 264 314 313 303 323 353 366
264 264 269 253 251 259 244 230 229 232 240 246 242 240 239 231 236 239 236 249 256 235 229 224 218 222 225 227 241 250 270 313 319 317 344 382 369 365
253 259 243 240 249 238 243 241 243 243 244 241 241 237 225 239 233 227 248 268 238 218 222 217 221 225 228 242 249 275 313 313 387 398 356 348 420 389
256 252 249 255 254 248 243 246 244 239 241 241 239 240 230 227 234 248 259 222 218 224 216 220 227 229 240 248 274 305 314 382 382 341 432 419 394 384
259 257 254 255 258 248 238 237 244 246 245 230 229 226 226 233 250 251 244 223 222 224 218 226 229 239 245 269 296 313 334 365 344 332 335 373 364 358
267 267 263 258 253 249 228 246 246 239 230 233 239 243 241 251 264 229 228 221 225 220 227 229 237 244 264 289 307 314 382 345 347 330 336 319 324 330
245 248 255 252 254 251 240 238 237 237 238 241 243 245 253 244 239 257 230 221 220 226 230 237 246 262 287 301 300 375 329 337 328 336 331 321 322 323
246 245 243 242 241 241 241 243 243 244 249 253 251 247 251 253 221 218 216 221 226 230 236 247 263 285 294 303 327 343 341 336 333 321 309 306 303 311
254 255 256 256 256 258 259 239 235 231 230 223 228 261 258 251 250 217 224 226 234 236 249 262 273 291 309 311 365 337 330 326 322 309 297 298 298 292
221 219 217 216 217 218 221 222 221 220 222 224 225 229 242 277 274 266 238 238 238 251 264 266 288 306 296 348 341 326 304 305 317 339 353 371 371 372
Wind_Speed
59 61 105 107 106 80 113 75 111 93 72 115 107 117 118 110 120 81 105 103 94 72 71 69 67 57 51 41 40 38 39 38 40 35 38 25 29 27
66 94 106 74 70 80 72 76 111 75 114 74 116 120 114 112 117 114 88 84 75 74 67 63 55 49 48 38 37 41 41 39 40 36 33 19 23 12
57 68 107 63 68 84 96 95 118 112 86 89 121 112 117 122 113 87 77 76 70 68 54 52 47 46 45 37 36 40 42 41 38 33 33 21 16 13
110 105 105 114 113 113 115 98 122 120 116 130 110 115 116 94 74 73 73 69 63 61 48 52 49 45 43 37 36 38 38 36 33 31 32 28 29 27
104 101 105 107 116 117 122 124 89 98 116 104 83 114 74 99 80 70 72 70 63 49 41 41 39 38 37 36 35 33 31 31 30 32 33 32 31 29
109 108 107 108 111 84 101 113 89 108 76 115 116 89 79 80 78 68 72 52 49 47 43 41 40 37 35 33 33 35 35 36 35 36 37 37 36 35
109 110 101 109 111 103 86 85 94 109 107 90 71 78 72 72 68 72 64 55 51 45 45 46 42 42 41 41 40 40 39 39 41 44 44 42 41 41
110 111 102 99 87 81 77 75 79 86 65 97 55 68 74 72 73 70 64 58 55 50 46 48 46 46 45 45 46 46 45 43 45 48 47 47 48 48
97 91 81 79 80 83 71 72 75 52 65 76 58 61 72 74 71 61 61 58 55 54 51 47 46 49 49 49 51 50 48 49 50 51 51 52 53 53
96 91 90 77 71 71 67 68 92 66 59 73 63 68 72 73 69 60 62 58 56 52 53 50 47 48 50 51 50 52 54 55 56 57 59 61 60 60
92 92 81 60 64 63 75 65 70 65 51 58 66 70 71 72 64 62 61 59 58 52 53 54 50 51 50 53 55 58 60 61 63 67 71 71 70 71
56 53 85 58 89 64 63 67 51 55 57 66 67 63 69 60 65 61 60 60 58 56 54 56 56 54 56 58 60 63 66 69 73 74 75 66 67 67
53 60 64 65 54 44 43 48 50 63 66 66 69 70 60 65 64 62 61 62 59 58 61 59 57 58 60 63 65 70 73 75 76 71 68 67 66 62
51 42 48 45 49 48 52 66 59 61 66 70 65 64 66 65 64 61 63 62 65 59 60 59 60 62 65 68 72 74 76 78 73 70 69 68 67 59
44 45 41 46 50 44 49 62 62 65 66 63 65 66 65 64 64 65 64 69 64 60 61 61 63 66 69 72 77 78 81 77 71 70 69 62 59 57
50 46 54 56 52 56 55 59 58 60 60 64 65 65 60 65 62 60 73 70 61 61 62 64 66 69 73 76 78 81 78 73 71 57 54 54 49 49
51 53 54 52 53 52 54 56 58 61 63 65 65 65 61 62 66 73 68 60 63 64 65 67 69 72 77 80 81 79 74 68 50 52 41 39 41 39
51 54 54 52 46 49 56 59 59 62 64 58 59 61 64 70 75 68 65 64 65 66 67 70 73 76 79 83 80 78 75 56 52 49 44 34 36 35
45 48 49 52 53 55 52 58 61 60 59 63 67 69 70 73 72 63 63 64 66 67 69 72 74 78 80 81 83 75 58 55 46 45 41 39 39 37
47 45 48 50 53 55 55 56 58 59 61 65 66 68 71 66 65 71 65 65 67 68 72 74 77 78 79 79 76 67 61 51 48 43 38 36 36 39
52 52 52 53 54 55 57 60 62 62 66 69 67 66 68 69 63 64 65 67 68 71 74 77 77 79 79 75 74 63 58 51 45 42 42 40 40 41
51 53 55 56 58 60 62 56 56 56 57 59 62 67 66 68 69 67 68 69 70 72 76 77 78 79 78 74 62 59 57 56 51 48 49 47 47 50
50 51 52 54 55 56 57 57 59 60 61 62 63 64 63 66 66 68 69 70 71 74 75 76 78 78 73 73 60 57 61 61 60 62 63 57 54 52
Wind_Direction
287 294 289 288 290 293 292 297 294 297 299 300 306 304 305 311 310 308 312 312 315 309 309 305 306 303 302 302 301 298 295 293 299 288 298 316 329 317
291 290 286 294 294 298 295 294 294 296 299 299 303 302 307 306 309 312 309 309 309 310 307 306 303 300 302 301 297 296 296 296 301 302 299 311 317 323
291 292 286 291 294 294 294 293 292 296 301 296 299 305 306 306 310 309 306 307 310 308 303 303 301 300 301 298 295 295 298 301 298 296 300 294 304 301
281 283 285 286 287 288 289 297 291 292 296 295 296 302 305 302 302 305 307 309 311 310 306 303 301 299 298 296 292 292 293 292 289 291 300 301 293 289
282 283 285 286 285 287 287 288 292 290 292 293 298 303 301 309 305 306 308 309 309 308 306 305 297 300 294 294 291 290 292 297 294 292 295 296 294 289
279 281 284 284 283 290 285 287 292 290 301 294 296 298 301 302 302 305 307 311 309 307 306 305 303 305 299 301 298 294 293 291 291 287 289 290 287 284
278 280 281 284 286 285 287 287 282 287 290 292 296 297 301 301 301 304 308 311 308 307 303 300 300 296 295 296 293 289 291 291 290 290 291 288 282 277
278 280 282 284 286 287 291 293 290 287 292 299 292 294 297 298 300 303 307 309 307 306 304 297 295 294 292 293 291 291 289 286 283 285 288 286 283 276
275 279 280 281 290 280 287 293 290 287 290 292 290 293 295 298 299 306 304 306 307 307 306 300 296 295 292 291 291 290 287 286 285 289 286 281 279 275
276 276 278 284 282 282 284 288 289 287 286 293 290 290 292 298 301 300 302 304 305 307 305 302 297 296 295 293 291 289 289 290 290 289 286 284 279 275
273 275 276 285 285 285 281 287 285 285 284 286 287 291 292 296 298 299 301 303 304 304 305 303 297 299 293 291 293 295 293 293 294 294 293 290 286 281
273 272 276 278 282 282 282 283 279 281 282 285 289 290 292 294 296 300 303 306 303 302 300 301 300 296 294 295 297 296 297 298 298 297 295 289 284 280
272 273 274 277 276 275 275 277 276 283 285 287 288 291 292 292 296 302 302 307 301 300 302 301 298 296 297 298 297 299 300 299 300 300 295 291 291 289
270 268 270 272 272 275 276 281 280 280 284 286 287 287 289 294 299 301 303 303 306 300 300 300 298 300 300 300 300 301 302 302 303 299 296 295 292 285
270 269 264 267 270 269 270 279 281 280 281 282 283 286 290 296 299 302 302 305 303 300 300 300 301 301 301 301 303 303 305 306 303 300 297 290 285 280
271 267 273 274 273 275 270 276 276 278 279 279 281 287 292 295 299 298 303 303 299 298 299 300 302 301 302 304 305 307 309 307 306 300 295 289 279 275
268 269 272 270 269 270 272 273 275 277 277 279 285 287 293 297 298 300 299 297 298 299 300 302 303 303 306 306 309 310 310 310 304 300 299 288 282 275
270 269 269 270 266 264 268 272 271 272 277 287 291 291 294 294 297 297 296 296 297 299 302 304 304 307 307 309 311 311 313 309 304 300 300 296 286 278
272 268 266 266 265 268 282 278 278 281 287 287 287 289 292 294 296 294 295 296 298 301 303 303 307 308 310 311 312 312 310 307 301 299 296 291 288 282
274 274 271 271 271 273 277 280 282 284 286 288 290 292 292 292 294 297 297 297 300 303 304 306 307 310 311 313 312 311 309 305 303 298 293 288 285 282
275 276 277 278 279 280 281 282 285 287 287 287 289 290 292 294 293 295 296 299 302 304 305 307 310 312 312 313 313 309 305 303 298 294 287 283 278 274
273 273 274 275 276 278 279 283 285 287 288 288 289 290 292 292 294 295 298 300 302 305 305 309 311 312 313 313 312 307 304 301 299 293 286 283 278 273
278 278 279 280 281 282 283 284 284 285 286 287 288 290 296 295 296 298 298 301 303 304 308 310 311 312 311 315 310 306 301 300 299 298 293 288 283 279